Weather History for Wildwood, NJ

Change the Weather History Date:

Wednesday, January 15, 2014

  Actual Average Record
Temperature  
Mean Temperature 42 °F -  
Max Temperature 48 °F 37 °F 66 °F (2007)
Min Temperature 35 °F 26 °F 15 °F (2004)
Degree Days  
Heating Degree Days 24    
Moisture  
Dew Point 38 °F    
Average Humidity 91    
Maximum Humidity 100    
Minimum Humidity 87    
Precipitation  
Precipitation 0.01 in - - ()
Sea Level Pressure  
Sea Level Pressure 29.93 in    
Wind  
Wind Speed 5 mph (SE)    
Max Wind Speed 8 mph    
Max Gust Speed -    
Visibility 2 miles    
Events      
Averages and records for this station are not official NWS values.
T = Trace of Precipitation, MM = Missing Value Source: NWS Daily Summary

Daily Weather History Graph

Daily Weather History Graph

Search for Another Location

Airport:

Trip Planner

Search our weather history database for the weather conditions in past years. The results will help you decide how hot, cold, wet, or windy it might be!

Date:

Astronomy

Jan. 15, 2014 Rise Set
Actual Time 7:16 AM EST 5:01 PM EST
Civil Twilight 6:47 AM EST 5:30 PM EST
Nautical Twilight 6:14 AM EST 6:03 PM EST
Astronomical Twilight 5:42 AM EST 6:35 PM EST
Moon 4:56 PM EST (1/15) 6:31 AM EST (1/15)
Length of Visible Light 10h 43m
Length of Day
9h 44m
Full, 100% of the Moon is Illuminated
Jan 15
Full
Jan 15
Full
Jan 24
Last Quarter
Jan 30
New
Feb 6
First Quarter

Hourly Weather History & Observations

Time (EST) Temp. Windchill Dew Point Humidity Pressure Visibility Wind Dir Wind Speed Gust Speed Precip Events Conditions
12:15 AM 41.0 °F 36.4 °F 37.4 °F 87% 29.91 in 0.2 mi SW 6.9 mph - N/A   Overcast
12:35 AM 41.0 °F 35.8 °F 37.4 °F 87% 29.91 in 0.2 mi SW 8.1 mph - N/A   Overcast
12:55 AM 39.2 °F 33.6 °F 37.4 °F 93% 29.92 in 0.2 mi SW 8.1 mph - N/A   Overcast
1:15 AM 39.2 °F 33.6 °F 35.6 °F 87% 29.93 in 0.2 mi SW 8.1 mph - N/A   Overcast
1:35 AM 39.2 °F 33.6 °F 37.4 °F 93% 29.94 in 0.2 mi SW 8.1 mph - N/A   Overcast
1:55 AM 39.2 °F 34.2 °F 37.4 °F 93% 29.95 in 0.2 mi SW 6.9 mph - 0.01 in   Overcast
2:15 AM 39.2 °F 33.6 °F 35.6 °F 87% 29.96 in 0.2 mi WSW 8.1 mph - N/A   Overcast
2:35 AM 39.2 °F 34.2 °F 35.6 °F 87% 29.95 in 0.2 mi WSW 6.9 mph - N/A   Overcast
2:55 AM 39.2 °F 35.9 °F 35.6 °F 87% 29.96 in 0.2 mi WSW 4.6 mph - N/A   Overcast
3:15 AM 39.2 °F - 35.6 °F 87% 29.96 in 0.2 mi Calm Calm - N/A   Overcast
3:35 AM 39.2 °F 37.0 °F 35.6 °F 87% 29.96 in 0.2 mi SW 3.5 mph - N/A   Overcast
3:55 AM 39.2 °F - 35.6 °F 87% 29.96 in 0.2 mi Calm Calm - N/A   Overcast
4:15 AM 39.2 °F - 35.6 °F 87% 29.96 in 0.2 mi Calm Calm - N/A   Overcast
4:35 AM 37.4 °F - 35.6 °F 93% 29.95 in 0.2 mi Calm Calm - N/A   Overcast
4:55 AM 37.4 °F 34.9 °F 35.6 °F 93% 29.96 in 0.2 mi SE 3.5 mph - N/A   Overcast
5:15 AM 37.4 °F 34.9 °F 35.6 °F 93% 29.96 in 0.2 mi SE 3.5 mph - N/A   Overcast
5:35 AM 37.4 °F 34.9 °F 33.8 °F 87% 29.96 in 0.2 mi SE 3.5 mph - N/A   Overcast
5:55 AM 37.4 °F 33.8 °F 33.8 °F 87% 29.96 in 0.2 mi SE 4.6 mph - N/A   Overcast
6:15 AM 35.6 °F 31.7 °F 33.8 °F 93% 29.96 in 0.2 mi ESE 4.6 mph - N/A   Overcast
6:35 AM 35.6 °F 32.8 °F 33.8 °F 93% 29.96 in 0.2 mi ESE 3.5 mph - N/A   Overcast
6:55 AM 35.6 °F 31.7 °F 33.8 °F 93% 29.97 in 0.2 mi ESE 4.6 mph - N/A   Overcast
7:15 AM 35.6 °F 31.7 °F 33.8 °F 93% 29.97 in 0.2 mi ESE 4.6 mph - N/A   Overcast
7:35 AM 35.6 °F 31.7 °F 33.8 °F 93% 29.98 in 0.2 mi SE 4.6 mph - N/A   Overcast
7:55 AM 35.6 °F - 33.8 °F 93% 29.99 in 0.2 mi Calm Calm - N/A   Overcast
8:15 AM 35.6 °F 31.7 °F 33.8 °F 93% 29.99 in 0.2 mi SE 4.6 mph - N/A   Overcast
8:35 AM 37.4 °F 33.8 °F 33.8 °F 87% 30.00 in 0.2 mi SE 4.6 mph - N/A   Overcast
8:55 AM 37.4 °F 33.8 °F 35.6 °F 93% 30.01 in 0.2 mi SE 4.6 mph - N/A   Overcast
9:15 AM 37.4 °F 33.8 °F 35.6 °F 93% 30.01 in 0.2 mi SE 4.6 mph - N/A   Overcast
9:35 AM 39.2 °F 35.0 °F 37.4 °F 93% 30.01 in 0.2 mi SE 5.8 mph - N/A   Overcast
9:55 AM 39.2 °F 35.0 °F 37.4 °F 93% 30.00 in 0.2 mi SE 5.8 mph - N/A   Overcast
10:15 AM 41.0 °F 36.4 °F 39.2 °F 93% 30.00 in 0.2 mi SE 6.9 mph - N/A   Overcast
10:35 AM 42.8 °F 38.0 °F 39.2 °F 87% 29.99 in 0.5 mi SE 8.1 mph - N/A   Overcast
10:55 AM 42.8 °F 39.3 °F 41.0 °F 93% 29.99 in 1.0 mi SE 5.8 mph - N/A   Overcast
11:15 AM 44.6 °F 40.7 °F 42.8 °F 93% 29.98 in 10.0 mi SSE 6.9 mph - N/A   Overcast
11:35 AM 44.6 °F 40.7 °F 42.8 °F 93% 29.96 in 10.0 mi SSE 6.9 mph - N/A   Scattered Clouds
11:55 AM 46.4 °F 42.9 °F 44.6 °F 93% 29.95 in 10.0 mi SSE 6.9 mph - N/A   Partly Cloudy
12:15 PM 48.2 °F - 44.6 °F 87% 29.94 in 10.0 mi South 6.9 mph - N/A   Partly Cloudy
12:35 PM 48.2 °F - 44.6 °F 87% 29.93 in 10.0 mi SSE 8.1 mph - N/A   Scattered Clouds
12:55 PM 48.2 °F - 44.6 °F 87% 29.92 in 10.0 mi SSE 6.9 mph - N/A   Scattered Clouds
1:15 PM - - - N/A% - - North - - N/A   Unknown
1:35 PM - - - N/A% - - North - - N/A   Unknown
1:55 PM 48.2 °F - 48.2 °F 100% 29.91 in - ESE 6.9 mph - N/A   Unknown
2:15 PM 48.2 °F - 44.6 °F 87% 29.90 in 10.0 mi ESE 4.6 mph - N/A   Clear
2:35 PM 46.4 °F 42.9 °F 44.6 °F 93% 29.89 in 10.0 mi ESE 6.9 mph - N/A   Clear
2:55 PM 46.4 °F 43.5 °F 42.8 °F 87% 29.89 in 10.0 mi ESE 5.8 mph - N/A   Clear
3:15 PM 46.4 °F 44.3 °F 42.8 °F 87% 29.90 in 10.0 mi ESE 4.6 mph - N/A   Clear
3:35 PM 46.4 °F 44.3 °F 42.8 °F 87% 29.90 in 10.0 mi ENE 4.6 mph - N/A   Clear
3:55 PM 46.4 °F 44.3 °F 42.8 °F 87% 29.90 in 10.0 mi East 4.6 mph - N/A   Clear
4:15 PM 46.4 °F 45.2 °F 42.8 °F 87% 29.90 in 10.0 mi ENE 3.5 mph - N/A   Partly Cloudy
4:35 PM 44.6 °F 42.2 °F 42.8 °F 93% 29.90 in 10.0 mi ENE 4.6 mph - N/A   Clear
4:55 PM 42.8 °F 40.1 °F 41.0 °F 93% 29.90 in 0.5 mi East 4.6 mph - N/A   Overcast
5:15 PM 42.8 °F 40.1 °F 39.2 °F 87% 29.90 in 0.2 mi ENE 4.6 mph - N/A   Overcast
5:35 PM 42.8 °F 41.1 °F 39.2 °F 87% 29.90 in 0.8 mi East 3.5 mph - N/A   Overcast
5:55 PM 42.8 °F 39.3 °F 39.2 °F 87% 29.90 in 0.8 mi East 5.8 mph - N/A   Overcast
6:15 PM 41.0 °F - 39.2 °F 93% 29.91 in 0.5 mi Calm Calm - N/A   Overcast
6:35 PM 41.0 °F 38.0 °F 39.2 °F 93% 29.90 in 0.5 mi East 4.6 mph - N/A   Overcast
6:55 PM 39.2 °F 35.9 °F 37.4 °F 93% 29.89 in 0.5 mi East 4.6 mph - N/A   Overcast
7:15 PM 39.2 °F - 37.4 °F 93% 29.88 in 0.2 mi Calm Calm - N/A   Overcast
7:35 PM 39.2 °F 37.0 °F 37.4 °F 93% 29.89 in 0.2 mi East 3.5 mph - N/A   Overcast
7:55 PM 39.2 °F 37.0 °F 37.4 °F 93% 29.89 in 0.2 mi East 3.5 mph - N/A   Overcast
8:15 PM 39.2 °F 35.0 °F 37.4 °F 93% 29.88 in 0.2 mi East 5.8 mph - N/A   Overcast
8:35 PM 39.2 °F 37.0 °F 37.4 °F 93% 29.88 in 0.2 mi ENE 3.5 mph - N/A   Overcast
8:55 PM 39.2 °F - 37.4 °F 93% 29.89 in 0.2 mi Calm Calm - N/A   Overcast
9:15 PM 39.2 °F 35.9 °F 37.4 °F 93% 29.90 in 0.5 mi NW 4.6 mph - N/A   Overcast
9:35 PM 39.2 °F - 37.4 °F 93% 29.90 in 0.8 mi Calm Calm - N/A   Overcast
9:55 PM 39.2 °F - 37.4 °F 93% 29.90 in 0.5 mi Calm Calm - N/A   Overcast
10:15 PM 39.2 °F 34.2 °F 39.2 °F 100% 29.90 in 0.5 mi West 6.9 mph - N/A   Overcast
10:35 PM 41.0 °F 38.0 °F 39.2 °F 93% 29.90 in 1.5 mi NW 4.6 mph - N/A   Overcast
10:55 PM 41.0 °F 38.0 °F 39.2 °F 93% 29.90 in 2.0 mi NW 4.6 mph - N/A   Overcast
11:15 PM 39.2 °F 34.2 °F 39.2 °F 100% 29.88 in 1.8 mi NW 6.9 mph - N/A   Overcast
11:35 PM 41.0 °F 37.1 °F 39.2 °F 93% 29.90 in 2.0 mi NNW 5.8 mph - N/A   Overcast
11:55 PM 41.0 °F 36.4 °F 39.2 °F 93% 29.89 in 4.0 mi NW 6.9 mph - N/A   Overcast